sat.trackr.live / text

‹ back to catalog

LKW-2

NORAD 43080 · 2017-084A

PAYLOAD ACTIVE UNKNOWN

§ Identity

Operator
Country
PRC
Launch date
2017-12-23
Launch site
JSC
Launch vehicle
Mass (kg)
RCS (m²)

External: N2YO · Heavens-Above · Gunter

§ Orbital elements

Epoch: 2026-05-25T05:04:47.303904Z

Period
94.37 min
Inclination
97.1210°
Eccentricity
0.0001577
Mean motion
15.25985646 rev/d
Perigee alt
486.7 km
Apogee alt
488.9 km
Semi-major
6,866.0 km
B*
1.8890e-4
RAAN
186.0853°
Arg perigee
27.2650°
Mean anomaly
332.8672°
Rev number
46,818

§ Raw data

LKW-21 43080U 17084A   26145.21165861  .00004786  00000+0  18890-3 0  99962 43080  97.1210 186.0853 0001577  27.2650 332.8672 15.25985646468189

JSON: /api/v1/satellites/43080 · /tle

For live sub-satellite position, see the globe view (requires WebGL).

§ Visibility from observer

Set your observer location to see the next 7 days of passes ≥ 10°. The values pass through the URL so the page stays shareable.

No JS? Fill the form by hand. The geolocation button needs JavaScript.

§ Radio — SatNOGS DB

ModeDescriptionDownlinkUplink
FMN S-band telemetry 2.213 GHz

1 transmitter · refreshed weekly from db.satnogs.org